Theta_e
338 338 336 331 330 329 327 324 320 316 316 322 322 335 334 334 334 334 337 334 330 326 325 324 325 326 328 330 333 336 337 337 339 341 343 342 341 341
336 336 334 333 332 331 329 327 325 321 318 321 323 330 335 332 332 336 337 333 330 327 326 325 324 324 324 325 328 331 332 332 333 335 335 335 335 336
335 334 333 334 331 330 329 328 325 324 319 323 325 330 335 334 330 334 336 336 334 325 326 325 323 322 321 322 324 325 327 328 329 330 330 330 330 331
331 332 330 331 331 331 329 329 327 328 324 322 326 326 327 328 330 336 335 331 334 328 323 323 321 319 318 318 319 320 321 323 324 325 324 325 327 329
325 327 328 329 328 328 329 327 327 327 327 324 322 327 328 328 326 327 328 332 334 330 325 322 321 320 318 317 316 316 316 316 318 317 319 321 323 325
322 323 323 324 325 326 326 326 326 325 324 322 323 323 324 326 327 325 325 330 327 329 328 326 325 323 318 317 317 317 314 312 312 312 313 314 314 318
315 314 315 317 314 314 315 322 324 322 320 319 318 317 318 318 317 319 319 323 324 331 332 334 334 337 334 318 324 320 313 311 310 310 312 310 310 312
308 310 312 311 311 309 310 310 314 318 319 318 318 316 317 321 323 321 320 319 316 327 327 329 334 335 338 337 322 316 311 310 311 313 310 309 308 308
306 307 307 309 310 313 310 309 310 309 311 319 318 319 319 322 324 322 321 320 319 323 327 327 334 335 341 341 314 311 309 309 310 308 307 306 305 304
306 306 309 310 311 313 314 315 317 320 321 320 320 322 324 325 325 324 320 321 325 330 333 325 335 335 342 328 315 310 307 308 305 305 305 304 302 302
304 305 308 308 306 301 306 310 316 318 317 309 309 308 304 303 311 320 314 316 317 325 332 329 333 335 332 330 319 310 307 306 303 304 304 303 300 300
304 305 304 305 301 299 311 311 310 315 319 321 322 315 307 310 304 314 316 315 323 321 330 326 330 332 320 324 323 322 311 303 302 302 302 301 301 324
304 306 308 301 298 297 297 308 307 311 311 313 312 313 315 316 319 318 321 321 317 316 321 324 320 324 320 320 321 323 326 315 313 305 299 300 301 311
302 307 307 300 298 295 302 299 298 305 312 311 310 311 312 312 314 317 319 317 319 319 324 322 318 317 321 318 316 319 319 321 318 310 306 300 299 298
306 306 300 298 297 305 302 298 299 309 314 312 311 311 311 317 315 315 316 317 321 317 323 323 319 319 322 323 318 315 313 311 310 309 310 308 307 307
304 304 303 302 302 306 306 304 305 311 311 314 315 315 317 316 315 315 315 313 315 315 325 324 329 330 323 326 322 316 313 310 308 306 305 305 305 305
304 309 313 314 313 314 314 315 315 316 318 318 316 314 315 315 317 320 317 317 314 315 317 323 320 317 309 314 320 315 309 306 304 303 301 296 296 298
308 313 312 313 313 314 313 315 316 312 320 319 321 320 318 318 320 323 324 320 320 318 314 314 319 318 318 310 303 311 305 303 303 302 299 294 292 295
313 312 314 314 313 315 316 316 315 319 322 318 321 320 323 324 320 323 324 323 318 315 314 315 317 317 313 305 302 297 302 301 300 298 297 295 292 293
314 313 314 316 317 315 314 315 316 317 318 319 319 321 323 324 324 323 324 323 319 318 317 317 317 319 315 306 295 294 294 299 294 291 289 289 290 291
315 316 316 316 316 316 315 315 317 316 316 317 317 319 321 322 322 327 325 311 314 322 318 308 303 296 303 300 293 291 294 295 296 292 291 290 288 288
313 317 317 318 321 318 317 318 318 317 317 317 317 316 317 318 320 324 327 324 325 321 305 304 306 307 302 294 290 290 291 293 295 295 295 294 292 286
315 316 318 319 320 320 319 319 318 319 319 318 318 317 317 316 321 326 328 327 318 310 307 304 302 303 297 293 291 291 291 292 293 293 292 295 296 295
Wind_Speed
14 14 13 11 12 12 11 10 12 12 11 10 11 10 8 8 10 11 10 6 7 9 11 13 16 17 15 16 17 18 16 18 15 15 16 13 12 11
13 16 15 13 14 13 12 11 11 12 14 11 10 10 9 8 9 11 14 13 11 11 13 15 17 16 13 15 16 16 17 14 14 14 13 12 11 11
17 18 20 18 14 14 13 12 12 12 14 11 11 9 10 11 13 13 12 13 12 17 19 18 17 15 14 14 14 14 14 13 14 14 12 12 9 11
20 20 22 15 20 18 15 17 15 13 13 17 12 11 14 15 16 13 10 12 12 16 13 14 15 15 15 16 15 14 12 11 12 14 12 11 12 12
19 19 19 20 20 16 17 16 15 14 16 15 15 12 11 8 12 14 14 13 11 13 12 15 18 17 16 16 15 14 14 13 14 12 13 13 12 11
18 18 19 19 19 18 18 18 16 16 16 14 14 13 11 9 11 12 12 10 8 12 11 16 13 18 17 16 15 16 15 15 16 15 12 11 9 9
15 16 16 19 24 21 14 16 17 15 14 14 13 12 12 9 10 9 9 7 6 9 9 14 10 9 9 9 12 16 15 15 13 11 11 10 8 7
17 18 18 22 24 27 25 25 21 19 19 16 14 14 14 11 11 11 12 12 13 8 15 14 12 8 9 8 13 13 16 16 14 14 12 10 9 8
17 16 17 16 18 20 21 23 25 26 27 21 22 19 18 15 14 14 14 14 15 14 14 12 9 9 8 6 14 14 15 15 14 13 11 10 9 9
17 18 20 20 20 20 20 21 21 21 20 17 21 21 19 17 17 14 13 14 16 13 11 12 8 9 7 4 8 12 12 12 13 11 10 9 8 8
16 16 19 18 23 16 13 16 20 20 16 18 21 17 14 14 15 8 11 12 14 12 9 10 8 7 5 6 6 9 11 9 8 9 9 9 9 10
15 17 21 21 22 18 15 16 18 21 18 17 15 12 12 15 19 18 13 15 10 6 6 7 6 6 2 3 8 8 7 8 7 6 7 10 13 7
12 12 8 7 12 16 16 12 15 12 5 3 4 6 5 8 8 11 13 9 5 2 2 1 1 1 1 4 4 4 6 6 6 5 7 6 5 7
11 12 9 8 15 14 9 14 14 5 3 3 1 2 3 4 5 6 7 5 3 3 2 2 1 2 4 6 5 3 6 4 6 5 5 9 14 13
12 7 6 15 13 15 9 9 11 8 1 5 2 3 2 4 3 6 6 2 5 4 1 2 5 8 8 6 6 5 4 3 4 5 5 5 4 6
5 5 10 12 12 15 7 9 7 10 10 5 8 8 6 4 6 5 5 5 4 1 4 2 4 6 3 8 9 8 7 4 4 5 6 6 6 5
6 7 6 5 6 7 7 8 10 9 5 5 5 5 6 6 6 11 10 9 7 7 5 4 10 13 12 13 8 8 6 5 5 6 6 7 7 5
5 2 4 2 6 9 7 6 5 2 2 6 1 5 7 7 5 4 4 5 7 7 5 2 6 6 6 10 21 8 6 4 6 7 7 7 6 5
3 2 4 4 7 7 4 6 7 6 4 4 6 5 4 4 5 5 5 5 5 6 4 3 4 3 4 3 3 18 4 5 7 7 7 6 5 6
1 3 5 6 7 3 6 6 4 5 5 4 6 7 2 6 5 5 6 8 7 5 6 6 4 1 2 5 5 4 11 7 8 10 11 10 8 16
3 3 4 8 3 7 8 9 8 7 7 7 8 7 6 4 5 5 7 7 8 7 7 7 5 11 11 9 5 3 6 14 8 12 12 10 7 4
7 8 8 7 2 5 5 3 4 4 5 6 6 7 6 7 5 4 3 7 5 6 7 6 5 5 5 5 9 8 7 9 12 14 12 6 4 8
6 7 9 3 3 5 4 4 2 3 6 7 7 7 7 7 5 5 5 7 9 8 8 7 7 8 9 9 10 7 12 10 6 7 5 7 11 14
Wind_Direction
249 244 240 251 259 262 265 269 276 282 281 285 287 296 284 300 320 317 314 295 163 209 238 249 249 248 237 246 242 228 210 208 205 215 214 218 229 236
254 253 247 248 244 247 252 257 262 271 276 277 282 293 295 309 300 300 301 291 240 222 226 231 243 249 238 237 237 222 208 206 206 216 215 212 222 236
254 253 255 252 253 252 253 253 253 258 270 264 259 285 305 311 299 290 274 277 278 226 223 226 237 241 238 233 227 216 217 226 215 203 212 216 221 239
263 262 258 256 255 254 259 265 263 268 276 278 278 280 275 270 268 269 265 275 282 283 216 225 236 235 223 223 220 208 211 217 219 222 207 210 222 235
274 271 263 261 263 262 262 261 259 249 242 250 254 243 246 283 298 287 272 262 260 255 247 215 224 234 227 220 218 199 196 198 209 212 209 216 221 239
283 281 279 278 274 266 263 265 265 265 270 274 271 269 266 267 259 273 267 253 262 287 275 280 218 224 222 211 211 210 200 197 199 198 197 210 216 229
283 285 286 292 305 300 296 287 266 260 259 260 261 260 258 264 254 269 289 281 271 276 275 271 256 221 217 218 233 213 201 191 187 182 201 211 207 213
286 284 284 286 282 283 279 271 270 272 264 260 260 256 255 260 264 272 282 283 284 271 270 260 259 253 246 205 206 189 182 172 176 190 197 190 197 179
279 276 275 270 281 280 273 266 254 250 250 257 258 255 261 260 265 266 271 273 276 266 258 268 274 266 249 259 162 166 175 165 174 174 178 173 181 169
272 274 270 273 269 270 275 276 273 263 251 242 247 254 255 255 253 260 267 278 270 259 253 261 248 243 231 93 149 154 153 162 158 167 163 167 171 158
275 277 270 272 270 269 269 274 272 265 256 239 242 243 250 258 252 250 258 254 253 245 233 236 238 222 166 137 115 113 122 140 148 151 161 161 136 125
271 270 255 257 268 273 271 278 270 266 261 251 236 254 251 257 234 230 234 245 225 254 222 213 214 183 156 78 129 133 112 98 106 131 142 139 160 151
274 275 277 333 314 313 282 278 252 262 237 209 236 229 219 218 204 203 210 219 171 203 283 155 111 268 255 121 81 95 124 132 108 92 96 138 199 149
269 275 274 324 305 277 300 319 334 337 142 127 131 91 113 104 115 123 112 121 111 126 187 144 121 202 196 140 134 100 77 89 127 125 108 96 78 69
264 250 292 279 286 294 286 277 296 294 272 161 164 125 120 118 97 109 98 100 143 136 292 186 215 230 239 148 130 125 126 87 104 118 112 100 113 133
247 251 247 249 249 263 291 264 241 249 254 175 158 145 145 139 169 169 162 141 150 155 162 106 351 28 266 107 123 133 130 138 109 87 97 84 75 65
285 253 235 227 272 273 276 256 220 220 242 123 125 147 156 172 199 182 168 180 179 161 159 116 80 74 65 31 99 104 106 100 110 117 98 84 45 51
228 189 199 234 251 269 261 236 158 279 270 138 203 204 176 189 188 175 173 175 159 159 146 136 146 138 110 71 32 96 89 109 104 99 97 97 71 53
327 316 232 248 269 256 210 51 32 3 46 161 149 161 143 157 169 167 167 162 109 120 129 145 161 159 137 93 50 25 88 106 114 85 77 71 111 78
272 246 262 293 282 64 62 84 46 60 53 21 57 46 104 133 130 130 139 141 136 156 144 143 168 145 117 145 123 16 27 123 113 100 96 86 83 83
333 347 325 287 260 69 49 51 47 32 34 31 28 22 357 118 101 122 138 135 133 140 119 72 55 92 111 104 84 66 54 67 87 127 128 107 104 96
328 315 311 291 53 95 112 98 73 47 50 48 39 32 9 6 45 111 104 139 154 102 97 111 125 91 59 87 106 106 107 92 83 82 57 50 143 149
302 289 284 325 69 73 25 6 13 57 45 25 24 29 21 359 59 39 81 93 98 108 118 106 81 77 91 110 114 115 115 110 102 99 39 1 137 113